Tracking 18840 objects as of 18-November-2017
HD Live streaming from Space Station
objects crossing your sky now

SL-19 DEB

Track SL-19 DEB now!
10-day predictions


NORAD ID: 36038
Int'l Code: 2009-059C
Perigee: 707.8 km
Apogee: 721.7 km
Inclination: 98.2 °
Period: 98.9 minutes
Semi major axis: 7085 km
RCS: 0.8568 m2 (medium)
Launch date: November 2, 2009
Source: Commonwealth of Independent States (former USSR) (CIS)
Launch site: PLESETSK MISSILE AND SPACE COMPLEX (PKMTR)

Note: This is SATELLITE DEBRIS
aabbcc
Your satellite tracking list
Your tracking list is empty




NASA's NSSDC Master Catalog

Two Line Element Set (TLE):
1 36038U 09059C   17322.52119608  .00000124  00000-0  38784-4 0  9991
2 36038  98.2132 157.5202 0009824 206.4004 206.1188 14.55548244427054
Source of the keplerian elements: AFSPC